RH
2 2 3 3 3 3 3 3 3 3 3 3 3 3 3 3 3 3 3 3 3 3 3 3 3 3 3 3 3 3 2 2 2 2 2 1 2 2 2 3 6 13 15 12 8 9 12 17 22 25 37 47 47 45 45 50 58 67 74 78 81 82 84 87 89 91 92 91 91 93 93 88 88 90 83 79 80 72 72 69 59 61 62 57 54 49 48 44
2 2 2 2 2 2 3 3 3 3 3 3 3 3 3 3 3 3 3 3 3 3 3 3 3 3 3 3 3 3 3 3 3 2 2 1 2 2 2 2 3 8 14 15 12 9 10 15 18 22 33 42 45 46 47 52 62 72 77 80 82 81 85 88 91 92 93 93 87 87 94 92 84 79 74 71 71 69 75 74 64 64 62 59 57 49 49 47
3 3 3 3 2 2 2 2 2 2 2 3 3 3 3 3 3 3 3 3 3 3 3 3 3 3 3 3 3 3 3 3 3 3 2 2 2 2 1 2 2 4 10 15 15 12 10 12 15 21 30 38 45 47 48 54 64 73 79 82 83 85 88 91 93 93 94 91 86 88 90 92 91 79 69 69 75 75 74 75 69 66 63 58 56 50 48 48
5 5 4 4 3 3 3 2 2 2 2 2 2 3 3 3 3 3 3 3 3 3 3 3 3 3 3 3 3 3 3 3 4 3 2 2 2 2 2 2 2 2 5 11 16 16 13 12 13 19 28 37 45 47 48 55 63 72 82 84 84 88 93 93 91 92 94 87 87 95 92 93 94 81 74 77 79 78 74 75 71 66 63 56 54 50 45 46
7 6 6 5 5 4 4 4 3 3 3 2 2 2 2 3 3 3 3 3 3 3 3 3 3 3 3 3 3 2 3 3 4 3 3 3 2 2 2 2 2 2 3 7 13 19 19 15 14 16 25 36 46 51 51 54 60 69 81 85 82 86 92 91 86 89 92 87 90 97 95 96 92 82 82 84 80 78 76 77 74 67 63 56 51 48 44 45
10 9 8 7 7 6 5 5 5 4 4 4 3 3 3 3 2 2 3 3 3 3 3 3 3 3 3 3 3 3 3 3 4 3 3 3 3 2 2 2 2 2 2 4 9 17 22 21 18 17 23 32 44 57 56 54 60 68 78 83 82 82 86 86 82 86 89 87 91 92 94 97 93 89 87 85 80 75 75 78 78 72 65 60 51 44 43 44
14 12 11 10 9 8 7 7 6 6 6 5 5 5 4 3 3 3 3 3 3 3 3 3 3 3 3 4 3 3 3 3 3 3 3 3 3 3 2 2 2 2 2 2 4 10 17 22 24 22 22 25 34 51 57 54 58 66 74 79 84 83 81 83 78 80 86 86 89 89 93 95 95 95 88 88 87 80 81 82 81 76 68 65 55 46 43 43
19 17 15 14 12 11 10 9 8 7 7 7 6 6 6 5 5 4 4 3 3 3 3 3 3 3 3 3 3 4 3 3 4 3 3 3 3 3 3 3 2 2 2 2 2 4 8 15 23 25 25 23 26 38 49 52 55 62 68 71 82 86 84 88 83 82 88 88 84 85 91 91 93 97 90 91 94 88 85 82 82 80 70 66 60 52 48 46
25 22 19 18 16 15 13 12 10 10 9 8 8 8 7 7 6 6 5 5 4 4 4 3 3 3 3 3 3 3 3 4 4 3 3 3 3 3 4 4 3 2 2 2 2 2 3 6 12 21 27 28 26 27 32 41 48 57 65 64 72 84 88 93 92 88 91 91 87 83 88 91 90 92 93 94 93 90 83 76 78 77 67 64 62 55 51 50
30 28 25 22 20 19 17 15 14 12 11 11 10 10 9 9 8 7 7 6 6 5 5 5 4 4 3 3 3 3 4 3 4 3 3 3 3 3 4 4 4 3 2 3 2 2 2 2 4 9 18 26 26 23 21 24 31 41 55 56 56 69 80 85 88 88 89 92 92 87 86 90 89 90 94 94 90 90 87 79 76 71 64 62 62 58 54 54
32 32 30 27 25 22 21 19 18 16 14 13 13 12 11 11 10 9 9 8 7 7 6 6 6 5 4 4 3 4 4 3 4 4 3 4 3 3 3 4 4 4 4 3 3 3 2 2 2 2 6 13 19 24 23 21 21 25 35 41 41 50 63 72 77 81 82 84 89 88 84 87 91 92 93 92 89 90 91 88 80 70 63 61 62 61 58 56
31 33 34 33 30 27 24 22 21 20 18 17 15 14 13 13 12 12 11 10 9 8 8 7 7 6 6 5 5 5 5 4 4 4 3 3 3 3 3 3 4 4 5 4 4 3 2 2 2 2 2 4 9 17 23 25 24 22 23 26 30 35 43 55 62 67 69 74 84 85 83 87 92 93 91 89 87 86 88 87 81 71 63 61 61 62 61 57
29 33 35 36 35 33 30 26 25 23 22 20 18 16 15 14 13 13 12 12 11 10 9 9 8 7 7 6 6 6 5 5 5 4 4 4 4 4 3 3 4 4 4 5 5 4 3 3 2 2 2 2 4 7 12 18 21 25 24 21 24 25 28 37 44 49 51 58 73 76 77 87 92 92 89 85 82 81 85 85 79 73 66 63 61 60 62 57
31 36 38 39 39 37 35 32 29 26 24 23 20 18 16 15 14 13 12 12 11 11 11 10 9 9 8 7 7 7 6 6 5 5 5 4 4 4 4 4 3 4 4 4 5 5 5 4 3 3 2 2 2 2 4 8 14 20 22 21 20 19 23 32 33 35 35 37 54 61 63 76 83 86 83 79 81 79 82 83 75 73 70 66 63 61 61 57
37 41 42 42 42 40 38 36 32 29 26 24 21 19 18 16 15 14 12 11 10 10 10 10 10 9 9 9 8 7 7 6 6 6 5 5 4 4 4 4 4 4 4 4 4 5 6 5 4 4 3 3 2 2 2 2 6 11 16 21 24 23 27 37 36 31 27 23 33 45 45 53 65 75 77 75 81 82 83 84 75 73 77 72 66 64 62 59
40 44 46 46 44 42 39 37 34 31 27 24 22 20 19 18 16 15 13 12 11 9 9 9 8 9 9 9 9 8 7 7 7 7 6 6 5 5 4 4 4 4 4 4 4 4 5 5 6 5 4 4 2 3 3 2 3 4 8 14 21 27 30 41 43 39 36 21 21 41 41 41 55 66 70 72 77 79 82 84 77 76 82 76 67 66 63 62
42 45 48 48 46 44 41 38 35 32 30 27 24 22 20 19 17 16 14 13 12 10 10 9 8 8 7 8 8 8 8 8 8 7 7 7 6 6 5 4 4 4 4 4 4 4 4 4 5 7 6 5 4 3 3 2 2 2 3 6 11 20 26 36 44 54 64 43 27 45 49 46 57 62 62 65 68 75 80 81 78 77 82 77 67 67 65 65
44 48 49 49 48 46 43 41 38 35 32 30 27 25 23 21 19 17 15 13 12 11 10 9 8 7 7 7 6 7 8 8 9 8 8 7 7 7 6 6 5 4 4 3 4 4 4 4 4 6 7 6 5 4 4 3 3 3 2 3 5 9 16 24 43 69 83 67 46 50 57 58 65 66 61 56 60 76 83 80 77 74 78 76 67 67 67 68
44 50 51 52 51 48 46 43 42 39 36 34 31 28 26 24 22 20 17 15 13 12 11 9 8 7 7 6 6 6 6 6 7 9 9 9 8 8 7 7 6 5 5 4 4 4 3 4 3 4 5 7 8 6 7 5 4 4 2 3 3 7 13 12 38 78 85 79 70 62 65 66 64 69 69 64 65 73 75 76 77 74 74 74 68 67 67 69
43 51 55 56 54 53 50 46 43 42 40 37 34 32 30 28 26 24 21 18 15 14 12 11 9 8 7 7 6 6 5 5 6 6 8 9 9 9 8 7 7 6 6 5 4 4 4 4 3 4 4 7 10 9 8 7 5 5 2 4 2 6 15 10 32 76 86 84 86 81 81 71 61 69 74 70 63 60 65 71 71 71 73 72 68 67 69 71
35 47 56 60 59 56 54 51 48 44 42 39 37 35 33 31 29 28 26 22 19 16 14 12 10 9 8 8 7 6 6 5 5 5 6 7 8 10 9 8 8 7 7 6 6 5 4 4 3 4 4 5 8 9 10 9 8 7 4 4 3 2 13 19 34 67 84 84 86 90 81 62 64 79 80 74 64 59 66 70 72 75 75 70 66 67 70 72
24 34 47 57 61 60 58 54 50 47 45 41 38 36 34 32 30 28 27 25 23 20 17 15 13 11 9 9 9 8 7 6 5 5 5 6 6 8 9 9 9 8 8 7 7 6 4 4 4 4 4 4 6 7 10 12 10 10 7 5 4 2 8 20 31 53 75 79 79 82 61 41 55 73 77 77 71 67 64 64 76 82 74 68 64 66 71 74
21 27 35 43 51 55 56 54 52 49 46 42 39 36 33 32 29 28 27 25 24 22 20 17 15 14 12 11 10 9 9 8 7 6 5 5 5 5 7 8 9 9 9 8 7 7 6 5 5 5 5 4 5 5 8 12 12 10 10 7 6 5 5 13 27 48 69 74 74 77 65 53 55 57 63 69 65 66 65 64 76 81 73 67 64 65 69 76
29 30 32 36 41 44 46 49 49 47 45 42 38 36 33 31 29 27 24 23 22 21 21 19 17 15 14 13 12 10 10 9 8 7 6 6 5 5 5 6 8 9 9 9 8 7 7 7 7 6 5 4 4 5 6 9 12 12 12 10 8 6 4 11 29 44 57 67 69 72 74 73 67 58 59 62 59 62 69 71 72 74 71 66 64 65 68 74
39 38 37 38 39 39 40 41 42 44 44 40 37 35 33 30 28 27 25 22 21 19 18 19 18 16 15 14 13 11 10 10 8 8 7 7 6 5 5 6 6 7 8 9 9 9 8 7 8 7 6 6 4 4 5 6 9 13 14 13 12 9 5 11 29 39 46 60 64 64 74 80 75 67 60 57 56 58 67 76 75 70 65 65 67 67 70 74
36 41 42 40 39 39 37 35 34 37 38 36 35 33 31 29 28 26 24 20 19 19 16 16 17 16 15 13 12 12 11 10 9 8 7 7 7 6 6 6 5 6 7 8 9 9 9 8 8 8 7 7 6 5 5 5 6 9 13 16 15 13 8 8 20 27 33 50 59 57 64 72 70 66 63 59 58 58 60 68 77 77 70 71 73 67 68 74
23 29 33 35 36 36 35 33 32 31 31 30 30 28 26 25 24 24 22 18 19 20 15 14 15 18 19 15 12 11 10 10 9 8 7 7 7 7 7 6 6 6 6 7 8 8 9 10 9 8 8 7 7 6 5 5 5 6 9 16 17 16 14 9 13 21 25 35 51 57 58 63 64 64 68 67 62 62 62 64 79 89 83 77 74 66 67 74
12 16 19 23 26 28 30 31 32 31 30 29 28 26 24 21 20 20 17 14 19 23 19 15 15 17 19 17 16 13 11 10 9 8 8 6 6 6 7 7 6 7 6 6 6 6 8 10 11 10 9 8 7 7 7 6 5 5 7 13 19 18 18 15 12 23 33 32 39 50 54 59 64 63 65 65 59 55 57 66 78 86 84 79 71 64 66 72
7 8 10 12 14 17 18 22 27 27 27 27 25 23 21 20 19 17 13 14 19 23 23 24 20 17 16 16 16 15 14 12 10 9 8 7 7 6 6 6 6 6 6 6 6 6 6 8 10 10 9 9 8 7 8 7 5 6 6 9 16 16 18 19 11 14 31 36 35 41 47 52 61 69 67 61 60 54 48 55 65 67 70 75 73 67 68 69
6 6 7 7 9 10 10 13 16 18 21 21 20 21 19 17 16 13 10 12 19 21 20 22 22 20 20 18 16 14 12 11 11 10 9 9 8 7 6 6 5 5 5 6 6 6 6 7 6 7 9 9 9 8 8 8 7 6 7 6 9 13 17 20 16 10 14 22 29 38 45 45 50 67 70 56 54 56 50 49 57 62 60 67 78 75 68 64
5 5 6 5 6 7 6 8 9 11 13 12 14 15 13 15 13 10 17 24 33 35 24 16 15 15 17 17 16 15 13 12 10 8 10 10 8 9 8 7 7 6 5 5 5 6 6 7 6 5 7 8 9 9 7 8 8 8 9 8 7 11 16 17 16 15 10 9 15 24 35 39 35 40 49 51 46 45 48 46 50 60 57 58 73 77 69 66
8 9 9 8 8 6 6 7 6 7 7 6 9 8 8 12 4 12 42 54 51 46 31 19 18 19 23 21 16 14 11 11 11 10 10 8 8 9 7 8 9 7 7 6 4 6 5 6 8 7 7 7 8 10 9 8 9 9 8 8 7 8 12 15 15 15 13 10 10 11 15 23 21 13 21 42 44 30 28 31 34 47 59 62 68 70 67 68
22 22 21 20 18 14 11 9 7 6 6 5 5 4 5 8 12 35 60 55 50 52 37 22 20 23 30 27 18 14 12 10 10 10 10 9 9 11 14 19 15 7 8 8 5 5 5 5 6 6 7 7 6 8 11 9 8 9 9 7 7 7 7 11 12 10 10 12 13 12 12 12 10 6 9 27 44 43 32 23 18 29 54 73 76 71 65 65
31 30 30 28 25 23 19 15 12 10 9 7 6 7 5 9 36 64 60 40 41 47 38 28 26 25 25 21 15 13 12 11 9 8 10 9 9 18 31 34 20 7 7 9 6 6 5 5 7 8 8 9 9 8 13 16 12 8 9 9 8 8 8 9 11 9 7 8 13 16 15 12 9 9 7 10 33 56 51 28 14 16 34 61 76 73 64 61
32 31 32 30 28 27 24 21 20 17 17 15 12 13 9 12 37 52 44 35 36 39 41 40 35 30 24 19 17 14 12 12 9 7 9 9 11 24 37 33 16 7 9 7 8 9 6 7 12 11 9 8 8 7 10 17 18 12 10 11 11 9 9 10 11 12 9 9 19 26 23 18 14 13 12 9 11 29 39 25 11 8 14 35 61 71 64 57
31 29 30 30 30 30 29 28 28 25 24 22 20 20 17 17 26 31 33 35 40 52 56 46 33 25 26 32 25 14 16 18 9 7 10 10 16 24 26 22 12 9 12 9 10 13 8 10 14 10 10 15 17 20 18 12 16 22 18 14 13 10 10 13 14 17 15 12 21 33 37 38 36 26 21 20 10 8 22 22 11 6 4 11 32 55 64 59
28 26 26 26 27 28 30 33 34 34 33 30 33 38 38 34 30 34 38 37 47 64 61 47 32 28 51 71 51 26 27 28 14 10 12 14 31 37 20 13 11 5 8 9 10 11 7 13 23 19 19 26 30 36 37 25 16 23 30 34 32 21 15 17 21 23 21 23 30 33 39 52 58 47 36 36 31 19 17 19 17 16 9 2 6 25 49 59
27 24 23 22 22 23 24 28 32 34 34 33 39 48 53 47 38 39 42 36 42 51 47 38 25 32 69 82 55 35 31 26 19 20 24 33 61 67 31 10 10 6 5 8 7 8 6 10 29 38 34 32 30 28 31 29 15 11 25 43 53 52 49 39 27 23 19 25 37 33 30 45 60 61 53 47 47 42 32 25 23 21 13 5 1 5 21 32
28 26 24 22 22 23 21 23 25 28 34 40 47 53 56 46 31 28 29 25 27 28 26 23 17 34 59 46 28 30 22 16 20 27 39 50 65 67 35 10 9 6 4 7 6 7 8 5 21 50 58 49 39 31 35 42 33 22 22 31 48 66 78 72 51 36 26 22 27 25 21 33 48 61 65 59 55 55 51 43 33 23 13 8 6 5 7 18
30 27 26 25 23 23 24 24 26 36 51 55 47 41 41 35 23 19 20 18 19 19 19 21 17 25 35 23 20 23 13 14 20 28 53 64 53 44 29 15 13 10 6 9 8 8 10 4 8 41 69 67 53 46 57 71 72 67 54 44 55 61 64 73 66 49 38 30 26 23 20 25 31 41 57 66 64 59 57 53 45 36 25 14 9 6 5 18
32 28 25 26 23 23 31 31 23 29 46 50 36 23 21 22 20 19 19 16 17 18 18 19 15 14 17 17 18 16 11 15 18 30 55 57 36 22 18 15 16 14 10 10 12 10 9 5 2 20 50 69 69 60 61 76 88 90 73 61 71 73 65 72 71 57 52 47 38 28 25 37 47 46 50 58 63 62 58 56 54 50 40 26 13 6 2 10
33 31 28 28 25 22 31 39 28 19 23 27 23 18 16 16 16 16 15 14 15 17 14 13 13 13 12 12 14 14 13 15 19 29 33 24 15 12 10 11 11 12 12 11 14 13 10 9 4 6 22 47 73 73 57 64 84 85 70 62 71 81 80 79 74 69 69 65 56 40 28 43 64 63 53 54 60 62 60 58 58 54 46 35 24 16 10 10
36 36 34 32 29 24 26 36 34 22 18 18 17 16 15 15 14 13 14 15 15 15 13 12 14 14 10 11 12 11 12 15 18 21 17 10 11 10 8 9 7 9 11 9 11 13 14 16 9 6 8 17 52 78 65 60 78 85 80 74 72 78 84 83 78 75 74 74 74 60 37 41 64 67 57 58 61 61 62 61 60 59 51 40 36 30 19 13
42 40 43 40 35 30 26 27 27 22 20 20 19 17 16 15 15 14 15 16 15 15 13 13 14 13 11 11 12 10 10 13 13 14 16 13 10 6 6 7 6 7 9 9 10 10 13 18 13 9 9 3 21 61 76 73 76 86 96 90 75 74 83 86 80 71 69 74 80 74 53 46 65 73 64 63 62 59 64 65 63 66 61 49 47 45 32 20
50 45 47 48 43 38 32 29 28 26 25 23 20 18 17 16 16 16 17 17 16 15 15 14 14 13 12 11 12 11 10 10 12 14 16 13 10 9 7 8 8 8 7 6 8 9 10 15 16 14 15 9 6 29 64 86 84 81 90 91 80 81 88 88 76 61 61 69 76 83 70 54 66 77 72 69 65 59 63 68 70 71 68 59 51 45 35 26
52 52 48 49 50 46 42 39 35 32 30 27 24 21 19 18 19 18 18 18 17 16 16 16 15 14 14 13 12 13 12 12 13 14 16 17 19 19 15 11 11 13 11 7 5 9 9 10 14 16 16 14 10 10 30 65 83 80 79 83 87 92 91 84 70 57 60 66 72 84 77 58 58 71 77 75 68 61 58 61 71 74 67 65 61 51 38 21
44 57 57 54 55 54 50 48 45 41 37 33 29 25 22 21 21 20 20 19 19 18 17 16 16 16 15 15 15 16 16 14 13 14 16 15 16 21 21 17 16 17 14 8 5 7 8 7 8 12 14 13 15 13 12 30 55 65 65 75 91 94 84 76 72 68 68 68 73 84 81 64 54 61 77 82 75 73 67 61 69 73 65 65 69 67 54 32
33 46 59 62 61 61 60 56 54 50 46 40 34 29 26 24 23 22 22 21 19 19 18 18 19 18 17 18 19 18 16 15 15 15 16 14 13 17 23 30 38 41 31 22 19 15 10 7 6 7 11 12 15 17 14 16 28 35 37 51 77 92 89 78 74 77 74 65 69 83 85 76 66 59 64 78 84 82 74 68 71 71 67 69 71 72 70 61
38 34 51 66 69 68 66 63 61 59 53 43 35 30 27 27 26 24 23 21 20 21 22 22 22 20 18 17 18 18 19 22 23 22 21 22 18 15 20 29 40 48 45 41 45 42 24 11 12 13 10 10 14 18 18 15 16 20 21 24 41 68 85 83 75 75 71 55 56 80 89 84 85 75 59 66 84 84 73 71 75 70 67 70 72 71 70 70
56 40 41 56 70 74 73 71 69 63 53 41 35 34 31 29 28 24 23 22 21 24 25 25 24 20 16 16 19 25 30 32 30 28 28 27 22 17 22 30 33 36 39 37 41 46 38 28 34 35 22 11 11 16 21 19 12 13 16 14 16 30 55 79 85 78 68 55 55 75 89 88 94 94 71 58 73 84 76 70 72 70 66 70 77 71 58 56
60 57 51 57 70 76 76 77 72 62 51 43 38 35 31 28 26 24 24 25 25 26 26 26 25 19 14 19 28 35 40 42 38 36 35 31 23 20 27 37 42 45 49 47 42 43 43 42 47 49 39 26 19 16 19 23 17 11 12 14 13 11 19 51 85 88 73 67 66 70 82 92 98 99 84 66 66 78 79 73 72 69 66 70 77 67 46 36
35 50 56 64 75 76 71 71 67 57 49 42 36 31 28 27 26 26 26 26 24 25 27 29 25 16 14 23 32 38 44 46 43 41 41 36 25 20 25 32 38 44 50 52 49 47 46 45 51 56 50 41 37 28 22 27 26 16 11 11 14 15 6 13 54 88 87 76 70 67 76 92 99 101 96 81 70 72 75 74 74 72 67 68 70 63 43 25
Wind_Speed
19 20 20 21 21 21 21 21 21 21 21 21 21 21 21 21 21 20 20 20 19 19 18 17 16 15 14 13 12 12 12 13 14 15 17 17 16 17 19 18 17 16 13 12 15 18 20 20 21 20 18 17 16 16 15 13 13 13 13 12 7 6 6 5 4 3 5 4 4 6 8 10 10 10 10 9 8 5 5 6 4 3 4 3 1 0 0 0
17 18 19 20 20 21 21 21 21 21 21 21 21 21 21 21 21 21 21 21 21 20 19 19 18 18 16 15 14 13 12 13 14 16 18 18 16 17 18 19 19 18 15 14 15 16 19 21 22 22 20 18 17 16 15 14 13 13 14 13 7 6 6 5 4 4 5 5 4 6 6 8 12 11 8 6 4 4 6 6 5 4 4 3 1 1 1 1
17 17 18 18 19 19 20 20 20 20 20 21 21 21 21 21 21 21 21 22 22 21 21 20 20 19 19 18 16 15 14 13 14 17 18 18 17 17 18 19 20 19 18 16 14 14 16 20 21 22 20 18 17 17 16 14 14 13 14 14 9 6 6 6 5 4 5 6 6 6 7 9 11 9 7 7 5 6 8 6 7 7 4 3 2 1 1 1
18 18 18 18 18 18 19 19 19 20 20 21 21 21 21 21 21 21 21 21 22 22 22 21 21 21 20 20 18 17 16 13 16 19 17 17 18 18 18 19 20 20 20 17 14 13 14 17 20 21 21 19 18 17 16 15 15 14 14 15 12 7 6 7 6 4 4 6 5 6 7 9 9 6 5 8 8 10 9 7 8 8 5 4 2 1 1 0
20 20 20 20 19 19 19 18 18 18 19 19 20 20 21 21 21 21 21 21 21 22 22 22 21 21 21 21 20 20 18 15 20 20 15 17 18 18 20 19 20 21 20 18 16 15 14 15 18 20 20 19 18 17 17 17 16 15 14 15 15 11 7 8 8 5 5 6 7 4 2 4 5 4 6 8 9 10 10 9 9 8 6 4 3 3 3 2
24 23 22 22 22 21 21 20 19 19 19 18 19 19 20 20 20 21 21 21 21 21 22 22 21 22 21 21 21 21 19 18 22 20 16 18 18 18 21 20 21 21 21 20 19 17 16 15 16 17 19 20 19 18 18 18 17 16 15 14 15 15 12 10 9 6 7 9 9 6 3 2 3 3 6 7 8 9 10 11 11 9 7 4 3 4 4 4
28 26 25 24 24 24 23 23 22 21 20 20 19 19 19 19 19 20 20 21 21 20 21 21 21 22 21 22 22 22 21 19 22 22 19 21 18 17 20 21 22 21 22 22 21 20 19 17 16 16 18 19 19 19 19 19 18 17 17 15 14 15 15 12 10 8 8 10 9 7 6 5 4 2 3 5 6 7 7 9 11 9 6 4 4 4 4 4
31 30 29 28 27 26 26 25 25 24 23 22 21 21 20 19 19 19 19 20 20 20 20 21 21 21 21 22 21 22 21 18 23 25 22 22 20 18 19 21 22 22 22 22 22 22 21 19 18 17 17 18 20 22 22 20 19 18 18 17 13 13 14 12 12 10 8 9 10 9 7 5 4 3 4 6 7 5 3 4 8 8 4 4 4 4 4 4
33 33 32 31 30 29 29 28 27 27 26 25 24 23 23 22 21 20 19 19 19 19 20 20 20 21 21 22 21 21 19 18 25 28 23 23 23 21 20 20 22 23 23 22 22 23 22 21 21 20 20 21 21 22 22 21 19 18 19 20 17 15 14 13 12 9 7 8 9 10 8 5 3 4 6 7 7 5 3 4 7 6 4 4 5 5 5 4
34 34 34 34 33 32 32 31 30 29 28 27 27 26 25 24 24 23 22 21 20 20 20 20 19 20 20 21 21 19 18 20 27 28 23 24 24 23 22 21 22 23 23 24 23 23 23 24 24 24 23 23 21 20 20 20 21 22 22 24 22 19 17 17 15 10 9 8 8 9 8 6 5 5 6 4 4 4 4 5 6 5 4 3 4 5 5 5
35 35 35 35 34 34 34 33 33 32 31 30 29 28 27 27 26 25 25 24 23 22 22 21 20 20 20 21 20 18 19 22 26 26 24 25 25 24 24 23 23 23 24 24 24 24 25 26 27 26 25 24 22 20 19 18 20 21 23 23 21 19 18 17 16 14 14 11 9 10 9 8 9 7 3 2 2 2 3 5 5 3 3 3 4 5 5 5
35 36 36 36 35 35 35 35 34 34 33 32 31 31 30 29 28 28 27 26 26 25 24 23 22 22 20 20 20 19 21 23 23 24 23 24 25 25 25 24 25 24 24 24 25 26 26 27 27 26 26 26 24 24 22 19 18 19 21 21 19 20 18 17 16 16 17 13 11 12 11 11 11 7 3 1 1 1 2 3 3 3 3 3 4 5 6 6
34 34 35 36 36 35 35 34 34 35 34 34 33 32 31 30 30 29 29 28 28 27 27 26 25 24 23 22 21 21 22 22 21 22 22 24 25 26 26 26 26 26 25 25 25 26 27 27 27 26 27 27 26 26 23 20 19 19 20 19 19 19 18 18 19 19 19 16 13 14 13 13 13 9 6 5 4 2 2 2 3 4 3 4 6 7 7 7
33 33 33 34 35 35 34 34 33 34 34 34 34 33 33 32 31 30 30 30 29 29 28 28 27 27 26 25 24 23 22 22 22 22 22 23 25 26 26 27 27 27 27 27 26 26 27 27 27 26 26 26 26 25 23 20 20 20 19 17 17 16 14 16 20 20 22 19 15 16 15 15 15 12 10 10 8 5 4 4 4 4 4 5 7 8 8 8
33 32 32 32 33 34 34 33 32 32 33 33 33 33 33 32 32 31 31 30 30 30 29 29 29 28 28 27 27 26 25 24 24 23 23 24 24 26 26 27 28 29 28 28 28 27 27 27 26 26 26 26 26 24 23 23 22 21 18 15 14 12 10 13 17 19 22 20 16 17 18 18 16 14 14 13 10 7 5 5 6 5 6 7 8 9 9 8
32 32 31 31 32 32 33 33 32 31 31 32 32 32 32 32 32 32 32 31 31 30 30 30 30 29 29 29 29 28 27 26 26 25 25 24 25 25 26 27 27 28 29 29 29 28 28 27 26 26 26 26 26 24 24 24 22 20 17 16 15 13 10 11 13 15 20 21 14 13 17 17 15 14 14 14 11 9 6 6 7 7 8 9 9 9 10 9
32 31 31 31 31 31 32 32 32 32 31 32 32 32 32 32 32 32 32 32 32 31 31 31 30 30 30 30 30 29 29 29 28 28 26 26 26 25 25 25 26 27 29 30 30 30 29 28 27 26 26 26 26 26 24 21 19 19 18 18 17 16 13 11 8 7 14 21 14 9 13 15 14 14 14 14 13 11 10 9 9 9 10 10 10 10 10 9
31 30 30 30 30 30 31 31 32 32 32 32 32 32 32 32 32 32 32 32 32 32 32 32 31 31 31 30 30 30 30 30 30 30 29 28 27 26 25 25 26 28 29 30 30 30 30 30 29 28 27 26 25 25 21 17 19 21 20 19 18 18 16 13 8 2 9 22 20 13 15 15 13 13 13 13 13 13 13 12 10 11 12 12 10 10 10 10
31 30 29 29 29 30 30 30 31 32 32 32 33 32 32 32 32 32 32 32 32 32 32 32 32 32 31 30 31 31 31 31 30 31 31 31 30 29 28 27 27 27 28 28 29 30 31 31 31 29 26 23 22 21 19 19 22 22 22 22 21 18 15 13 9 7 10 24 24 19 19 17 14 13 12 11 13 15 15 14 13 13 14 13 12 11 12 12
30 29 28 28 29 29 30 30 30 31 31 32 32 32 33 33 33 33 33 33 32 32 32 32 32 32 31 30 30 30 31 31 31 31 31 32 32 31 30 30 29 28 28 27 28 29 31 31 31 28 25 23 22 21 20 22 23 23 23 25 25 22 16 11 10 13 13 22 24 23 24 19 13 12 13 13 14 16 17 15 15 16 16 14 13 12 13 14
29 29 28 28 28 28 29 29 30 30 30 31 31 31 32 33 33 33 33 34 34 33 32 32 32 33 32 31 31 31 30 30 30 30 31 32 33 33 33 32 31 30 29 28 28 29 31 31 29 27 26 26 25 24 23 23 23 23 23 23 25 25 19 13 11 14 13 18 22 25 26 18 10 10 13 14 15 15 16 16 15 17 17 14 13 13 14 15
30 29 28 27 27 28 28 28 29 29 29 30 30 30 31 31 32 32 33 34 34 34 34 33 32 32 32 32 32 32 31 31 30 30 30 31 33 34 34 34 34 32 31 31 30 30 30 28 26 26 27 28 27 27 26 25 24 24 24 24 24 25 23 19 16 16 13 15 19 25 26 19 14 14 15 17 17 16 16 17 17 17 15 13 13 14 14 15
30 29 28 27 27 27 27 27 28 28 28 28 29 30 30 29 30 31 31 33 33 34 35 34 33 32 32 32 33 33 32 32 32 30 30 31 33 33 34 35 35 34 34 33 32 31 29 26 25 25 27 29 29 30 29 27 27 26 25 25 24 23 22 21 20 20 16 15 16 24 27 24 24 21 17 19 19 18 16 17 20 19 16 13 13 14 15 15
29 29 28 27 27 26 26 26 26 27 26 26 27 28 28 28 29 29 30 31 32 32 33 34 35 33 32 32 32 32 33 34 33 31 31 32 33 32 33 34 35 35 35 34 34 33 30 27 26 27 28 30 30 31 31 30 29 28 27 26 24 23 21 21 22 22 22 19 16 23 27 28 32 27 20 19 19 18 17 18 20 21 20 18 15 14 15 15
28 28 28 27 26 26 26 25 25 25 24 25 25 26 27 27 27 28 28 29 30 30 31 32 33 34 34 33 32 33 33 34 32 31 33 34 33 32 32 33 34 35 35 35 35 35 33 30 29 29 29 30 31 32 32 32 31 30 28 26 25 24 22 23 25 25 27 27 21 24 28 28 31 28 22 19 18 18 17 17 18 20 20 19 16 15 14 14
27 27 27 26 26 25 26 26 26 24 23 23 24 24 25 25 26 27 27 28 29 28 28 29 30 30 32 33 33 33 34 34 32 32 32 33 35 35 34 34 33 34 35 35 36 36 35 33 31 31 31 31 31 32 33 33 33 32 30 28 26 25 24 25 27 28 29 32 30 29 29 28 30 28 23 20 18 18 18 18 17 18 19 18 17 16 15 14
26 26 26 25 25 25 25 25 26 25 23 23 23 23 23 24 25 25 25 25 28 27 25 27 28 26 29 32 32 32 33 32 32 33 32 33 35 35 36 36 35 35 35 36 37 36 36 35 34 33 33 33 32 32 32 33 34 34 32 30 27 26 25 25 27 29 30 33 36 34 31 30 31 27 23 22 21 17 17 18 16 15 17 18 19 18 17 16
26 25 25 25 24 23 24 24 24 25 24 22 22 23 22 22 23 23 23 24 25 26 24 24 25 25 26 29 30 31 32 31 33 33 32 33 34 34 35 37 37 37 38 38 38 37 36 36 35 35 35 35 33 32 33 34 34 34 33 31 29 29 28 28 30 32 32 34 37 34 31 30 28 26 25 26 24 20 17 17 15 16 16 17 19 19 18 19
25 24 24 24 24 22 22 23 23 23 23 21 21 22 21 21 21 21 22 21 22 25 25 23 23 24 25 26 27 29 30 31 33 33 31 32 33 33 33 35 37 38 39 40 39 38 38 38 38 39 39 36 34 34 35 34 34 35 35 34 32 33 32 32 34 34 35 37 37 34 31 30 26 22 24 24 21 19 16 15 15 17 18 17 18 18 19 20
24 23 22 22 23 22 20 21 22 21 21 20 20 20 20 20 19 19 19 18 19 23 25 23 23 23 23 24 25 26 28 30 32 32 30 30 31 31 31 33 34 35 37 39 39 39 39 40 41 41 41 39 36 36 36 36 36 35 35 35 35 35 35 35 36 36 37 40 38 35 34 33 29 22 22 23 19 14 13 13 12 14 17 18 18 19 19 19
23 23 22 21 21 20 19 19 19 19 18 18 18 18 18 18 17 16 15 15 16 19 21 24 26 24 22 23 25 26 26 27 29 29 28 28 30 31 31 31 32 33 36 37 37 37 37 38 41 41 41 41 40 39 39 38 37 36 35 37 38 37 36 38 39 38 39 40 38 36 36 37 35 31 26 24 21 15 11 10 10 11 16 18 18 18 19 18
22 21 20 20 19 18 17 17 17 16 15 15 15 14 15 15 14 13 12 13 14 18 22 26 27 23 19 20 23 26 26 25 26 27 27 28 29 29 29 29 31 32 33 35 36 36 36 37 38 40 40 41 41 41 41 40 39 39 39 40 39 37 37 40 41 39 38 38 36 34 35 40 40 36 29 25 23 22 19 15 14 12 14 17 17 18 19 19
20 19 18 17 16 15 13 13 12 12 12 12 11 12 12 13 13 14 15 16 17 20 25 26 24 19 15 16 21 26 24 21 21 23 24 26 26 25 24 23 28 32 32 35 38 38 38 37 38 40 40 41 42 40 41 42 42 41 42 40 38 37 37 40 42 42 39 37 35 33 35 39 40 36 31 26 21 21 23 24 22 16 12 14 16 17 19 22
19 18 16 14 12 10 9 8 7 7 8 8 8 10 13 16 18 18 19 22 23 22 20 18 16 13 14 16 18 21 20 18 19 20 21 22 21 21 23 23 29 36 34 35 38 38 39 37 34 35 36 38 40 39 38 39 42 44 42 39 38 37 37 37 39 40 38 35 34 33 35 38 37 33 31 29 23 19 24 30 30 24 17 14 16 16 18 21
19 16 14 12 10 8 5 4 3 2 3 5 7 10 14 18 19 19 20 21 20 16 10 8 8 9 13 15 16 18 19 19 21 20 19 20 18 19 22 26 31 35 34 34 35 36 39 38 35 35 36 36 39 40 38 37 40 43 42 40 39 38 37 37 37 36 35 34 32 30 32 34 33 31 30 30 30 27 29 35 34 29 25 20 17 16 17 19
18 15 13 11 9 7 4 3 1 1 2 4 6 8 11 14 15 15 13 12 11 9 7 8 9 9 10 12 16 18 18 20 22 21 20 20 20 22 25 26 30 32 32 32 32 35 37 36 36 39 39 36 34 34 36 38 38 38 39 39 38 38 37 36 36 33 32 34 32 27 24 22 22 24 25 27 28 28 30 36 35 30 30 28 22 18 17 17
16 12 10 9 6 4 3 1 1 2 4 5 6 7 8 10 10 9 8 9 9 10 11 12 11 10 8 7 13 17 16 18 21 22 22 21 19 23 27 28 30 33 33 32 32 35 36 32 31 34 36 35 33 30 31 36 37 35 32 29 28 33 36 36 36 33 32 32 29 27 23 15 13 17 17 17 21 22 24 31 34 31 31 33 28 21 17 14
13 10 9 8 6 6 5 4 4 4 4 6 7 6 5 6 6 7 9 10 10 11 14 15 13 11 14 11 12 17 18 18 21 22 22 20 16 20 27 30 31 34 33 31 31 34 35 32 28 28 32 34 35 36 33 35 39 38 33 26 22 25 28 32 36 36 36 33 29 29 28 21 12 10 13 13 16 18 16 22 31 33 33 32 30 28 25 19
12 10 10 9 9 8 7 5 4 4 4 5 5 4 4 4 4 6 8 8 8 11 13 13 11 12 16 16 16 19 19 18 20 21 18 19 20 22 28 32 33 34 33 31 32 32 33 34 31 28 29 30 31 34 30 28 34 34 34 34 31 28 26 26 31 33 34 35 33 32 31 27 21 10 8 13 16 17 16 17 25 31 31 29 29 31 30 23
10 10 9 9 9 9 7 5 3 2 2 2 2 3 4 4 4 5 6 7 7 9 9 9 11 12 15 17 17 17 18 17 20 22 19 21 24 25 27 31 32 33 33 31 34 34 34 37 36 32 30 29 29 31 27 24 26 26 28 35 35 34 33 29 29 31 31 32 32 32 30 25 22 17 8 9 16 18 17 17 19 24 28 29 31 33 30 22
8 8 8 9 9 8 6 5 4 3 2 1 1 1 2 3 2 3 5 6 5 6 7 8 10 11 10 13 15 14 16 17 19 23 25 26 27 27 27 29 31 34 33 33 36 38 36 39 38 35 35 33 30 33 32 30 29 28 30 36 37 33 32 30 28 28 27 27 28 31 26 14 13 17 17 13 14 16 15 16 18 21 25 27 30 32 29 24
8 7 8 9 8 7 5 3 4 4 3 2 2 2 2 0 1 3 3 3 2 4 6 6 7 9 9 11 13 13 15 18 21 26 30 28 28 29 27 27 30 33 34 36 37 37 36 39 40 37 39 39 34 34 37 35 34 34 31 33 38 34 31 30 28 23 19 18 21 26 25 19 18 19 23 22 14 11 15 19 19 20 24 25 28 30 28 26
9 7 7 8 8 8 5 3 3 5 5 4 4 4 3 2 2 3 3 4 4 5 7 7 8 11 13 13 15 16 17 20 24 28 30 29 29 31 28 27 29 30 32 36 36 36 36 39 42 39 38 41 38 35 37 38 39 38 31 31 38 38 33 33 32 28 23 17 15 19 23 24 21 18 22 24 16 10 16 20 17 19 22 24 27 28 27 28
9 8 8 8 8 8 6 4 4 5 6 5 5 5 5 4 5 5 5 7 8 9 10 11 12 15 16 17 20 21 21 23 25 27 30 31 33 33 31 31 33 33 34 36 35 35 37 39 42 42 39 40 42 39 39 40 42 43 39 36 41 43 39 38 39 35 31 27 21 18 21 25 25 20 20 21 19 17 16 16 14 16 19 22 28 30 27 27
8 8 7 8 9 9 8 7 7 7 7 7 7 7 5 6 7 7 8 10 12 13 14 16 17 19 20 22 23 25 26 27 27 28 30 33 35 35 34 36 38 39 40 39 36 35 37 39 41 44 44 42 43 44 45 46 45 47 45 41 43 43 41 42 44 42 37 36 32 25 22 27 29 25 21 24 27 28 21 19 24 21 14 16 25 29 28 27
10 9 8 8 9 10 10 10 9 9 9 9 10 9 7 8 9 10 11 14 15 16 17 19 21 22 23 24 25 26 27 29 29 28 28 30 33 35 37 39 41 43 44 43 41 40 41 41 40 43 47 45 44 46 49 50 48 48 48 46 45 44 44 45 46 46 44 42 39 33 29 33 36 32 25 26 32 33 26 23 28 26 19 16 19 20 21 26
11 10 10 9 9 10 11 11 12 12 12 12 12 12 11 11 11 12 14 16 17 18 20 21 23 24 24 25 26 25 24 25 24 23 23 26 29 32 35 39 42 44 45 46 46 46 46 44 42 44 47 47 47 48 50 53 53 52 51 49 47 46 47 47 47 48 48 47 44 39 35 37 43 41 32 30 32 33 32 29 25 25 25 24 24 19 16 22
11 11 11 10 10 10 11 11 12 13 14 14 13 13 13 13 13 14 16 17 19 20 22 23 23 24 25 24 22 20 18 18 18 19 20 21 23 27 30 34 38 40 42 44 45 47 48 47 46 47 48 48 50 51 52 54 57 57 55 52 50 49 50 51 51 50 51 50 48 43 39 38 42 45 42 38 35 33 35 34 27 26 28 28 30 27 22 24
12 11 10 11 11 11 12 12 12 13 14 14 14 14 14 15 15 16 17 19 20 20 21 22 22 23 23 19 15 14 14 15 16 17 19 21 22 22 23 26 31 34 36 37 38 41 46 48 48 48 50 51 52 53 54 56 57 57 58 57 55 53 52 52 54 53 53 53 50 46 43 40 39 45 49 48 42 37 38 38 31 31 33 31 33 35 32 32
13 11 11 11 11 11 12 13 13 14 14 14 14 14 15 16 17 18 19 20 21 21 20 20 22 23 18 12 11 12 13 15 16 17 18 21 22 20 18 19 22 25 27 30 32 35 40 43 43 45 49 53 54 55 56 56 57 58 59 59 57 55 53 52 54 55 54 53 52 50 48 44 40 44 50 53 50 43 42 43 38 38 39 35 35 37 35 33
16 13 12 12 13 12 12 13 13 13 12 13 14 15 16 17 18 19 20 20 20 21 20 20 21 18 12 8 11 13 13 15 16 17 17 18 19 17 16 17 18 19 20 22 25 28 32 35 35 38 44 48 51 55 56 56 58 60 60 59 57 56 56 54 54 56 55 54 54 53 52 48 44 45 50 54 55 50 47 48 46 45 45 42 39 37 33 29
19 16 13 12 12 12 11 11 11 11 12 13 14 16 17 18 18 19 20 20 20 19 18 18 17 12 9 8 12 12 14 15 15 15 15 15 16 16 16 16 17 18 19 19 19 21 23 27 28 30 37 41 43 50 55 56 59 62 61 59 57 56 57 57 56 56 57 56 55 55 56 53 47 46 49 53 57 57 54 52 50 49 49 47 43 40 39 36
Wind_Direction
285 282 280 278 276 275 273 272 271 270 268 267 266 265 264 262 261 259 258 257 256 256 255 256 256 253 249 245 241 237 234 232 227 224 225 225 221 220 223 224 224 229 232 231 228 220 215 213 217 220 221 224 227 230 228 224 223 220 218 219 237 255 263 271 250 268 272 268 260 217 182 174 180 177 168 168 168 146 141 153 145 163 169 162 172 125 95 29
286 284 282 280 278 276 274 272 270 269 268 266 265 264 264 263 261 258 257 257 255 254 252 252 253 253 251 246 242 239 235 234 232 227 226 225 220 222 224 224 225 227 228 229 231 225 218 215 216 218 218 221 224 226 226 224 224 219 215 217 229 253 259 264 264 296 277 252 254 229 200 194 188 176 172 161 153 157 152 152 141 145 166 159 123 74 55 319
284 283 282 280 279 277 275 273 270 268 266 265 264 263 262 262 260 258 256 256 256 254 251 250 249 250 250 248 244 239 236 235 237 232 228 226 221 223 224 224 226 227 228 229 234 232 226 221 219 218 217 219 221 224 224 222 225 220 215 216 218 240 249 246 255 305 285 244 247 230 213 214 186 162 173 163 150 168 161 159 150 145 171 161 115 98 64 341
279 278 278 277 276 276 275 273 271 268 265 264 262 261 260 259 259 258 256 254 254 254 252 250 248 247 247 247 245 241 236 232 239 236 229 229 223 222 225 225 227 228 229 228 232 234 231 228 224 222 218 217 219 221 221 219 225 223 218 216 212 219 242 243 242 274 274 242 246 228 211 209 179 160 187 167 161 178 174 169 163 155 174 170 138 173 149 175
275 274 273 273 272 271 270 270 269 267 265 263 261 259 258 257 256 256 256 253 251 253 253 251 248 247 245 245 244 242 237 230 239 239 232 234 226 221 224 226 226 228 230 228 228 231 231 230 229 227 221 218 218 220 220 217 222 225 222 219 214 218 234 243 246 251 243 247 271 265 206 193 184 192 196 174 174 189 184 171 171 165 169 173 158 183 189 191
276 273 271 269 269 268 266 264 263 263 262 262 260 258 256 255 253 253 254 253 251 249 251 251 250 248 245 244 243 242 238 231 239 240 233 237 230 221 224 225 227 227 229 227 226 227 227 228 228 229 226 222 218 219 222 219 219 223 223 221 218 223 230 233 245 254 241 250 282 311 317 256 231 196 188 201 205 199 184 170 174 172 165 175 177 190 199 193
280 276 272 269 267 266 265 263 261 259 258 257 257 257 256 254 253 251 251 252 251 248 247 249 249 248 246 244 242 241 238 233 240 240 232 236 232 223 223 225 227 226 227 227 225 225 225 226 226 228 229 226 222 220 223 221 219 222 225 223 217 223 227 226 238 254 260 259 266 291 302 267 237 196 199 220 203 185 175 168 173 172 164 176 185 195 203 202
282 279 275 272 269 266 265 263 261 259 257 255 254 254 253 253 253 251 249 249 249 248 246 246 246 247 247 246 243 241 238 232 239 239 231 235 234 227 224 225 228 227 228 228 226 227 227 227 226 228 230 229 226 222 222 222 219 223 229 228 220 221 224 226 234 243 260 265 251 250 269 261 220 226 246 209 172 150 126 140 164 172 169 177 193 202 200 211
281 280 277 274 271 268 266 264 262 260 258 256 254 253 251 251 251 250 249 247 248 247 246 245 244 244 245 246 244 241 236 227 236 240 232 233 234 229 226 224 227 228 228 228 227 227 228 228 228 227 228 229 228 226 224 223 220 221 228 230 223 217 220 227 230 231 249 260 251 249 265 270 227 228 237 204 161 131 122 130 143 164 184 184 195 199 200 218
277 277 276 274 272 270 267 265 262 260 259 257 255 254 252 251 250 249 248 247 246 246 246 245 243 242 242 244 244 241 234 225 234 240 234 232 233 230 229 226 227 228 228 228 227 227 227 227 228 227 228 230 232 232 230 226 224 222 225 229 225 219 219 228 234 239 254 261 258 262 276 290 287 262 227 180 130 118 141 146 140 159 193 207 208 201 209 227
275 274 273 272 270 269 267 265 263 261 259 258 256 255 254 253 251 250 248 247 245 244 245 244 243 242 240 241 242 239 234 228 232 239 236 234 234 231 230 228 228 228 227 228 227 227 227 227 228 228 229 232 233 236 236 232 231 230 232 235 235 233 230 232 242 250 256 264 270 271 279 290 296 285 233 134 109 109 122 139 147 182 199 220 230 223 226 228
276 274 273 271 268 267 266 264 263 262 260 258 257 256 254 253 252 252 251 249 247 245 244 243 243 242 240 240 239 235 235 233 232 237 235 233 235 232 230 229 229 229 228 228 227 227 229 229 229 230 230 231 231 232 233 231 231 235 239 241 241 243 243 239 243 249 252 255 262 264 269 280 287 294 314 337 195 123 121 155 192 233 220 232 242 236 233 227
276 275 273 272 270 267 264 263 262 261 260 258 257 256 255 253 252 252 251 251 249 247 245 244 242 241 240 240 237 234 235 235 233 234 234 232 233 233 230 228 228 229 229 228 228 228 229 231 231 231 232 232 232 234 236 233 229 230 235 237 238 241 246 249 248 249 251 245 247 252 255 270 278 288 303 284 255 220 196 234 251 246 229 236 244 240 236 231
275 273 272 271 270 268 265 262 260 259 258 258 257 256 255 254 253 252 251 251 250 249 247 246 244 242 241 240 238 236 235 235 234 233 233 232 231 232 230 228 228 229 230 229 228 228 230 231 231 232 234 235 236 238 241 241 238 237 237 238 241 241 244 255 257 257 256 249 246 253 252 256 263 272 275 266 259 247 232 252 260 262 256 240 242 243 239 237
279 274 271 269 268 267 265 263 260 257 256 255 255 255 255 254 253 252 251 249 249 248 248 247 245 244 242 241 239 237 234 233 234 233 232 232 231 231 231 229 228 228 229 230 230 230 231 231 231 233 234 235 236 237 238 238 237 239 243 247 250 248 242 252 261 266 265 256 249 254 255 254 258 264 264 262 261 252 239 246 249 260 262 247 243 244 242 243
285 279 273 270 267 266 264 262 260 257 255 253 252 253 254 254 253 252 251 249 248 247 247 247 246 245 243 242 240 238 236 233 233 233 232 233 232 231 231 230 230 230 230 231 231 231 232 232 232 232 233 234 235 236 236 235 236 237 240 244 245 244 238 242 261 277 275 268 259 255 257 261 267 268 263 263 266 262 257 250 246 248 250 246 243 243 245 244
290 285 278 273 269 267 264 262 260 257 255 252 251 251 251 253 253 252 251 250 248 247 247 247 246 245 244 243 241 240 238 235 234 234 233 233 233 232 231 230 230 230 230 230 231 232 232 233 231 231 232 232 233 236 236 237 239 238 233 233 236 237 233 229 244 275 275 274 275 263 262 270 274 272 268 270 272 271 269 260 250 244 240 242 242 242 244 239
290 288 282 276 272 269 267 264 261 259 256 254 252 250 250 251 251 251 251 250 250 248 247 246 245 245 244 243 242 240 239 237 234 234 233 233 233 233 231 229 228 228 229 230 230 231 232 233 231 231 231 231 233 237 238 238 237 235 228 224 227 233 234 226 218 211 271 275 280 280 276 279 279 277 271 267 265 260 259 260 259 253 242 238 237 236 238 233
288 286 283 278 273 270 269 267 264 262 259 256 254 252 250 250 250 250 250 250 249 248 246 245 244 243 242 242 242 241 240 239 236 234 234 233 233 232 231 230 229 228 229 230 230 231 232 232 232 231 232 233 236 237 236 235 235 234 227 219 215 219 227 227 205 165 231 264 278 289 288 284 281 280 271 258 253 251 250 253 258 257 246 235 234 234 231 227
288 285 282 278 274 271 268 267 266 264 261 258 256 254 252 250 249 250 249 248 248 247 246 244 243 242 241 241 242 241 240 239 237 235 234 234 233 232 231 231 231 229 229 229 229 231 231 232 232 232 232 232 233 233 230 231 234 235 231 225 218 212 206 209 194 169 207 254 268 281 284 282 283 282 274 261 255 254 251 248 251 254 246 232 232 235 229 224
288 286 283 279 274 271 268 266 264 264 263 261 257 255 253 251 249 249 249 248 247 245 245 244 242 242 241 241 241 240 239 239 237 235 235 234 233 233 231 231 231 230 229 229 229 230 231 231 231 231 231 231 230 229 228 228 232 234 234 231 227 220 200 188 193 176 197 245 258 270 272 268 277 284 279 269 258 252 246 242 243 245 239 229 232 237 230 226
286 285 283 280 276 272 268 265 263 262 262 262 259 256 253 251 249 248 248 248 246 244 243 243 242 241 241 240 241 240 239 239 237 235 235 235 234 233 232 232 231 231 230 229 229 229 231 231 230 229 229 230 229 228 227 227 229 230 232 231 230 227 209 195 191 175 193 242 260 272 272 266 269 269 274 276 262 248 241 236 233 233 230 229 235 235 231 228
286 283 281 280 277 273 269 265 262 260 259 260 260 258 255 252 249 247 246 247 246 244 243 242 241 241 240 239 238 238 238 238 237 235 235 235 234 232 232 233 232 232 231 231 231 231 230 230 229 227 226 228 228 228 227 226 227 227 229 230 230 230 222 208 189 171 191 225 243 264 274 278 275 265 266 275 268 256 245 235 230 231 233 235 238 238 236 229
289 284 281 279 276 274 270 266 263 260 258 257 258 258 257 254 251 247 245 245 244 244 243 242 241 240 240 239 237 237 238 238 236 235 235 235 235 233 233 234 233 233 232 231 233 232 230 227 226 226 224 225 225 227 227 226 227 227 228 230 229 228 224 214 194 181 192 195 210 249 263 272 272 269 267 270 270 263 250 239 235 235 238 240 241 245 241 229
295 289 284 280 276 273 270 267 264 261 259 257 255 255 255 254 253 250 247 245 243 242 242 241 241 240 240 239 238 237 238 238 236 236 236 235 235 233 232 233 234 234 234 232 232 233 231 228 227 226 225 224 224 226 227 227 226 227 228 229 229 227 223 213 200 194 193 183 192 233 248 261 267 265 263 264 268 262 248 239 239 240 240 238 238 242 240 230
300 295 290 284 279 274 270 268 265 261 258 257 254 253 253 253 252 250 249 248 243 240 241 240 240 240 239 238 237 237 238 238 237 237 236 235 235 234 233 232 232 233 234 233 232 232 232 231 229 228 227 226 224 224 226 227 227 226 227 227 225 225 225 220 213 210 199 181 185 210 228 248 260 262 263 267 268 259 249 241 239 244 242 235 233 236 236 228
301 298 293 288 284 278 273 270 267 263 258 255 254 251 249 249 250 250 250 250 245 241 240 238 237 237 237 238 237 236 237 237 237 237 236 236 235 234 235 234 232 232 232 232 232 231 231 232 232 231 230 228 226 225 226 227 228 226 227 228 225 222 222 224 222 222 214 195 190 198 208 227 246 257 259 262 262 254 246 242 239 244 242 235 230 231 233 227
303 299 295 291 286 281 277 272 268 264 259 254 251 249 248 246 247 247 247 250 247 243 240 237 236 235 236 238 238 236 235 235 235 235 235 237 235 233 235 234 233 233 233 232 231 230 229 230 231 232 231 229 228 227 226 227 228 227 227 227 227 222 220 221 218 216 217 211 203 200 203 213 228 242 246 250 257 253 237 232 239 244 243 238 231 227 230 232
307 303 298 293 288 284 279 274 269 265 261 255 249 248 247 244 243 243 246 248 247 244 244 240 236 237 237 237 238 237 235 235 235 233 233 236 236 234 234 234 233 233 234 234 233 231 229 228 228 229 230 228 228 229 229 228 228 228 227 226 227 226 223 223 221 215 213 215 213 208 208 211 212 229 243 243 251 258 242 229 241 251 249 247 239 228 226 232
310 307 301 295 291 286 281 276 271 266 262 257 251 246 244 243 241 241 243 243 242 246 248 246 239 237 240 240 238 238 237 237 235 233 232 234 235 236 235 234 234 233 234 234 234 235 235 234 231 229 228 227 226 229 229 229 229 229 228 226 227 229 228 228 227 222 218 218 215 209 212 218 212 216 238 242 242 252 247 236 242 254 253 248 241 232 227 228
311 307 302 298 293 289 284 279 272 267 262 258 252 245 240 239 236 236 237 235 240 247 248 247 243 238 240 243 242 239 238 240 238 235 235 233 233 236 237 235 233 232 233 232 231 233 235 237 238 236 234 230 227 228 228 229 231 231 230 227 225 225 228 233 233 229 227 226 222 216 218 227 227 225 234 242 243 243 246 243 239 246 252 246 239 236 233 228
315 311 307 303 298 292 286 280 274 268 261 255 249 241 234 231 223 215 214 217 233 244 243 242 244 242 241 244 245 242 239 242 242 241 240 237 234 236 238 239 236 232 231 231 230 229 229 232 236 239 239 236 232 230 230 230 230 230 231 229 226 224 225 232 236 234 233 235 234 229 227 232 238 240 239 241 251 258 259 253 243 238 241 240 238 239 236 230
324 321 317 313 307 300 292 282 273 264 257 250 241 229 216 207 192 183 196 209 219 231 237 241 246 247 242 240 244 245 244 243 243 243 244 242 240 239 237 236 235 232 228 229 230 228 227 227 231 235 238 238 236 233 234 233 231 232 233 233 232 230 228 231 236 237 236 237 238 237 235 237 242 245 241 239 251 265 265 261 258 250 237 236 241 240 234 229
330 329 325 323 319 312 302 287 269 252 245 233 219 208 197 189 180 179 197 212 217 225 237 249 256 248 234 232 238 243 248 247 240 240 243 243 242 242 236 232 233 232 230 231 232 231 229 226 226 230 235 238 237 236 236 237 236 235 235 236 236 235 235 234 237 240 239 239 242 243 243 243 245 246 243 239 233 238 253 259 258 253 244 239 241 239 232 227
335 334 331 329 329 329 326 308 283 242 218 202 190 187 188 191 193 199 210 218 225 233 244 250 246 231 223 230 236 236 243 247 239 233 235 238 238 234 233 237 239 236 234 234 234 234 233 228 223 224 229 234 236 236 236 237 239 239 237 236 236 235 237 238 239 241 241 239 240 244 247 249 250 251 251 246 234 228 242 253 254 250 246 240 232 234 235 228
339 338 336 335 337 339 336 331 328 212 187 190 192 193 196 201 208 216 223 228 226 222 226 228 229 229 223 234 242 235 236 246 242 233 232 237 241 236 231 235 240 239 235 234 233 232 232 232 230 228 225 224 227 230 233 233 234 239 240 239 238 236 236 239 240 239 239 238 236 235 242 253 261 257 255 258 249 234 235 248 255 252 248 243 233 232 241 238
346 348 350 350 353 3 10 35 119 179 184 182 187 199 210 215 217 218 222 226 209 201 222 240 242 231 194 203 245 242 238 244 243 243 242 238 242 242 237 235 238 240 238 234 234 234 231 228 229 230 224 216 216 219 227 231 227 229 236 239 241 241 238 237 238 235 233 233 232 229 227 233 262 268 264 270 272 256 239 243 250 250 249 248 242 237 241 249
355 4 11 14 29 51 66 92 121 147 172 180 188 200 211 215 213 207 214 220 205 204 226 241 246 221 183 189 239 243 242 242 238 242 238 224 223 233 237 237 235 239 239 236 238 239 235 226 216 220 224 221 220 221 225 232 230 224 222 220 222 233 238 238 237 236 233 228 225 227 224 216 222 267 285 287 293 288 264 241 239 242 248 250 250 246 242 251
6 17 22 29 41 53 64 80 107 128 151 177 187 186 188 206 209 203 216 223 207 213 230 243 250 222 201 220 245 244 249 251 241 241 231 217 221 228 238 243 240 240 240 238 240 239 238 231 213 205 216 220 222 223 221 230 238 233 224 217 212 214 222 229 232 235 236 233 230 229 228 220 207 214 288 296 294 296 289 264 240 238 244 247 249 248 243 248
16 22 24 34 37 40 51 58 64 89 128 185 171 142 167 207 228 217 225 232 224 229 237 242 247 234 227 244 254 254 264 265 255 252 239 231 239 241 245 251 249 247 242 238 238 235 235 235 220 202 205 211 213 212 200 200 224 230 216 207 208 213 218 222 226 228 230 233 234 231 232 229 216 213 235 277 285 288 292 285 258 241 239 238 240 244 242 237
14 20 25 35 33 30 41 48 40 44 43 333 334 58 165 197 224 228 233 238 239 240 236 237 249 254 255 256 258 266 276 273 266 256 242 240 253 256 253 251 252 252 246 238 237 235 234 236 228 211 205 206 205 205 198 190 203 215 207 197 198 206 212 215 223 227 227 231 231 229 228 210 184 200 209 225 264 280 283 283 274 258 250 241 238 242 241 233
357 6 17 29 31 29 34 37 20 25 43 36 2 346 354 12 235 241 247 255 258 243 248 261 270 276 285 277 267 271 270 264 261 256 252 256 264 265 260 254 251 253 252 246 241 237 236 237 234 221 210 207 203 204 206 198 198 212 212 199 197 200 203 208 214 215 217 231 237 230 219 188 161 176 197 209 230 267 282 281 277 270 265 252 238 234 234 231
347 349 1 16 22 21 23 17 354 3 16 16 1 346 339 327 291 275 277 284 283 273 277 294 290 282 292 293 283 279 270 260 257 258 263 268 269 267 266 261 255 252 253 252 248 243 238 237 236 228 217 211 205 204 208 203 199 205 205 195 195 198 200 205 207 199 190 203 234 241 222 193 168 168 190 200 203 232 268 274 278 279 273 257 239 229 225 224
339 338 349 1 1 359 1 2 357 356 354 348 341 335 326 317 308 298 296 297 294 291 293 298 294 290 293 292 286 284 279 271 266 262 262 265 268 269 268 266 262 256 253 252 250 247 242 239 237 232 224 216 209 205 207 206 203 200 196 191 190 194 198 201 202 199 189 184 196 224 221 189 167 169 175 166 168 191 220 235 250 271 272 254 239 231 221 217
331 330 336 346 346 340 341 347 350 347 339 329 322 316 306 308 309 299 297 300 296 295 297 298 295 295 295 291 289 288 283 279 274 267 263 264 269 271 268 266 263 260 257 253 249 247 244 241 238 234 229 221 212 209 208 208 208 203 199 194 188 192 199 200 199 200 196 187 184 195 201 180 172 181 171 156 171 183 183 195 209 220 237 236 231 231 225 215
324 321 319 329 336 334 333 335 335 333 329 319 310 302 292 296 301 296 295 297 298 298 299 298 298 298 297 294 293 291 286 282 278 273 269 266 265 266 263 261 259 258 257 253 248 245 243 239 236 235 234 226 217 214 212 212 213 210 206 199 192 194 200 201 199 201 200 192 184 186 186 177 183 192 176 165 182 185 180 192 203 208 217 210 205 220 227 217
320 313 311 316 324 326 327 328 327 324 321 314 308 304 298 296 299 298 298 299 301 302 299 299 300 300 300 299 296 291 285 281 279 278 276 271 266 263 260 259 259 257 256 253 250 247 245 240 234 232 233 229 223 219 216 215 216 215 212 204 197 199 201 200 199 200 200 193 185 184 182 179 189 195 183 176 186 187 189 197 202 207 212 205 197 208 221 217
315 307 306 308 316 320 319 320 320 318 316 313 308 307 304 301 302 302 301 301 301 301 300 301 303 304 305 302 295 288 283 283 287 290 291 288 279 270 262 258 257 256 255 254 251 249 246 243 238 234 231 229 227 223 219 218 217 217 217 211 205 204 204 201 199 199 201 196 187 185 184 182 191 196 192 190 188 187 195 199 196 194 198 200 202 204 202 204
317 308 310 309 312 315 313 314 317 317 316 314 310 309 306 303 303 301 301 302 301 302 304 305 309 311 308 299 289 288 290 293 299 302 304 306 299 284 270 260 255 255 255 254 253 252 247 243 241 239 232 227 227 225 222 221 219 218 219 216 212 210 209 207 202 200 203 200 191 188 187 185 191 198 199 197 189 187 197 200 190 183 190 199 200 200 198 196
340 321 316 314 312 315 315 316 319 317 314 311 309 309 307 304 303 301 302 303 303 307 311 312 314 310 299 290 294 302 304 301 302 304 304 309 308 295 278 265 256 255 255 252 250 250 247 244 243 243 237 229 226 226 224 223 221 220 220 220 217 213 212 213 208 203 205 203 196 192 188 188 196 201 201 198 192 190 198 200 191 184 189 196 197 201 205 199
5 349 335 326 318 317 318 318 318 314 310 306 306 306 305 305 304 305 307 307 308 313 315 314 312 300 281 293 312 312 311 306 301 302 302 304 304 292 276 266 257 255 256 253 249 248 248 247 246 247 243 234 228 227 225 223 222 221 221 221 221 218 214 215 212 207 206 205 201 196 191 194 205 208 201 198 196 196 199 199 194 189 189 191 196 205 211 208
18 15 8 355 340 335 336 330 322 315 311 310 311 310 309 309 309 310 311 310 310 313 312 310 304 277 257 305 318 313 313 308 304 306 301 296 294 287 275 266 258 254 254 250 247 247 246 245 245 247 245 238 231 228 226 223 221 220 220 220 221 221 219 217 215 210 208 207 204 199 196 200 211 213 204 197 197 199 201 200 197 194 191 193 200 210 220 227